Location: Austin
(30.3000°N, 97.7500°W)
Time: 07:27:46
(UTC-05:00)

CZ-2C R/B - Visible Passes

Search period start: 18 May 2026 00:00
Search period end: 28 May 2026 00:00
Orbit: 662 x 774 km, 98.5° (Epoch: 18 May)

Date Brightness Start Highest point End Pass type
(mag) Time Alt. Az. Time Alt. Az. Time Alt. Az.
18 May 2.6 05:33:30 10° NNE 05:38:00 64° ESE 05:42:31 10° S visible
19 May 4.8 04:44:32 10° ENE 04:47:20 16° E 04:50:07 10° SE visible
20 May 2.8 05:30:30 10° NNE 05:34:59 58° E 05:39:29 10° S visible
21 May 4.9 04:41:44 10° ENE 04:44:18 15° E 04:46:51 10° SE visible
22 May 3.0 05:27:30 10° NNE 05:31:57 53° E 05:36:27 10° S visible
23 May 4.9 04:38:59 10° ENE 04:41:15 14° E 04:43:31 10° SE visible
24 May 3.1 05:24:30 10° NNE 05:28:55 49° E 05:33:24 10° S visible
25 May 5.0 04:36:17 10° ENE 04:38:12 12° E 04:40:08 10° ESE visible
26 May 3.3 05:21:31 10° NNE 05:25:53 45° E 05:30:21 10° S visible
27 May 5.1 04:33:41 10° ENE 04:35:10 11° E 04:36:39 10° ESE visible
